This is the latest recevied weather packets stored in our database for station/object WB6ANP. If no packets are shown the sender has not sent any weather packets the latest 10 day(s).
| Time | Temp. | Humidity | Pressure | Rain* | Wind** | Luminosity | Snow |
|---|---|---|---|---|---|---|---|
| 1777640532 | 12.78° C | 94% | 1016.3 hPa | 0 mm | - | 16 W/m² | - |
| 1777640229 | 12.78° C | 94% | 1016.3 hPa | 0 mm | - | 17 W/m² | - |
| 1777639925 | 12.78° C | 94% | 1016 hPa | 0 mm | - | 21 W/m² | - |
| 1777639622 | 12.78° C | 94% | 1016.2 hPa | 0 mm | - | 33 W/m² | - |
| 1777639319 | 12.78° C | 94% | 1016.2 hPa | 0 mm | - | 32 W/m² | - |
| 1777639015 | 12.78° C | 94% | 1016.1 hPa | 0 mm | - | 27 W/m² | - |
| 1777638711 | 12.78° C | 94% | 1016.3 hPa | 0 mm | - | 13 W/m² | - |
| 1777638408 | 12.78° C | 94% | 1016.2 hPa | 0 mm | - | 11 W/m² | - |
| 1777638104 | 12.78° C | 94% | 1016.3 hPa | 0 mm | - | 7 W/m² | - |
| 1777637801 | 12.78° C | 94% | 1016.2 hPa | 0 mm | - | 7 W/m² | - |
| 1777637497 | 12.78° C | 95% | 1016.1 hPa | 0 mm | - | 4 W/m² | - |
| 1777637195 | 12.78° C | 95% | 1016.3 hPa | 0 mm | - | 2 W/m² | - |
| 1777636892 | 12.78° C | 95% | 1016.3 hPa | 0 mm | - | 2 W/m² | - |
| 1777636587 | 12.78° C | 95% | 1016 hPa | 0 mm | - | 1 W/m² | - |
| 1777636284 | 12.78° C | 95% | 1016 hPa | 0 mm | - | 1 W/m² | - |
| 1777635984 | 12.78° C | 95% | 1016 hPa | 0 mm | - | 0 W/m² | - |
| 1777635680 | 12.78° C | 95% | 1015.6 hPa | 0 mm | - | 0 W/m² | - |
| 1777635377 | 12.78° C | 95% | 1015.4 hPa | 0 mm | - | 0 W/m² | - |
| 1777635073 | 12.78° C | 95% | 1015.4 hPa | 0 mm | - | 0 W/m² | - |
| 1777634769 | 12.78° C | 95% | 1015.3 hPa | 0 mm | - | 0 W/m² | - |
| 1777634467 | 12.78° C | 95% | 1015.1 hPa | 0 mm | - | 0 W/m² | - |
| 1777634163 | 12.78° C | 95% | 1015 hPa | 0 mm | - | 0 W/m² | - |
| 1777633860 | 12.78° C | 95% | 1015 hPa | 0 mm | - | 0 W/m² | - |
| 1777633558 | 12.78° C | 95% | 1015 hPa | 0 mm | - | 0 W/m² | - |
| 1777633255 | 12.78° C | 94% | 1015 hPa | 0 mm | - | 0 W/m² | - |
* Rain latest hour (hover to see other rain measurements)
** Current wind speed in m/s (hover to see current wind gust speed)